DELTA 1 DEB, 21512

Orbit data source: Space-Track

DELTA 1 DEB, 21512 is space debris in SSO originally from a launch on Thu, 12 Jun 1975 UTC launched from the Air Force Western Test Range (AFWTR). Debris objects in space refer to the collection of defunct objects orbiting the Earth. Examples of debris include non-operational satellites, rocket bodies, and fragments generated from explosions, collisions, or faulty payload assembly.

Loading next visibility...
Identifier
21512, 1975-052GH
Orbit
SSO
Country
Flag of USUS
Related business
Manufacturer
Unknown
Mission
Spacecraft
Bus & Motor
Unknown
Mass
Unknown
Launch date (UTC)
1975-06-12 (51 years ago)
Launch vehicle
Unknown
Launch site
Air Force Western Test Range (AFWTR)
Object type
Payload
Rocket body
Debris
Shape & HBR
Unknown shape, 0.2 m
Radar Cross Section
Medium (>0.1 m² and <1 m²)

Expand to show TLE details & history
Last TLE update: 1 day ago

TLE from 1 day ago
0 DELTA 1 DEB
1 21512U 75052GH  26167.94759049  .00000088  00000-0  23812-3 0  9994
2 21512  99.8963  63.4800 0035667 194.0862 177.9854 13.40600357708785
Epoch: 2026-06-16T22:44Z
TLE epoch observation values (Epoch: 2026-06-16T22:44:31.818Z)
Latitude
11.86248°
Longitude
175.04572°
Altitude
1,135.74 km
Speed
7.273 km/s
True Right ascension
04h 05m 33s
True Declination
11° 47' 49"
Sunlit
Object was in daylight at epoch
Visualization orbit readout
Latitude
Unknown
Longitude
Unknown
Altitude
Unknown
Speed
Unknown
Apparent Right ascension
Unknown
Apparent Declination
Unknown
Sunlit
N/A
Visualization observer readout
Local Sidereal Time
18:51:21
Azimuth
Unknown
Elevation
Unknown
Doppler factor
Unknown
Orbital elements
Apogee altitude
1,131.056 km
Perigee altitude
1,077.68 km
Semi-major axis
7,482.505 km
Eccentricity
0.00357
Inclination
99.8963°
RAAN
63.48°
Arg. of periapsis
194.0862°
True anomaly
177.9997°
Mean anomaly
177.9854°
Eccentric anomaly
177.99256°
Mean motion
3.3533 °/min
Orbital period
107.36 mins
BSTAR
0.00023812
Loading maneuver chart data...
Computing Atmospheric mass density...
Loading historical data...
Loading historical data...
Loading historical data...
Loading historical data...
Loading historical data...
Loading historical data...
Loading historical data...

Documentation

Showing up to 5 results
|